"Platform","Alpena ReCON Buoy"
"NDBC ID","45162"
"Latitude (deg)",44.987
"Longitude (deg)",-83.270
"Water Depth (m)",20
"Sensor Device","System Power Controller board voltage input"
"Sensor Type","Solar panel voltage"
"Sensor Units","voltage"
"Measurement","A sample"
"Time means","Time at sample (UTC time zone)"

"Note:","This data was collected for research purposes."
"Note:","Minimal quality checking has been performed so data may contain known or unknown errors."
"Note:","Data provided by NOAA. Please credit NOAA."
"Note:","For more info see www.glerl.noaa.gov/res/recon"

"Time (UTC)","Solar Panel"
"YYYY/MM/DD HH:MM","volts"
2016/05/19 13:58, 16.76
2016/05/19 14:18, 16.40
2016/05/19 14:38, 16.29
2016/05/19 14:58, 16.49
2016/05/19 15:18, 16.82
2016/05/19 15:38, 16.26
2016/05/19 15:58, 16.31
2016/05/19 16:18, 16.96
2016/05/19 16:38, 16.79
2016/05/19 16:58, 16.81
2016/05/19 17:18, 17.67
2016/05/19 17:38, 17.97
2016/05/19 17:58, 18.53
2016/05/19 18:18, 18.73
2016/05/19 18:38, 18.13
2016/05/19 18:58, 19.17
2016/05/19 19:18, 19.38
2016/05/19 19:38, 19.34
2016/05/19 19:58, 19.56
2016/05/19 20:18, 19.47
2016/05/19 20:38, 19.05
2016/05/19 20:58, 19.44
2016/05/19 21:18, 19.48
2016/05/19 21:38, 19.54
2016/05/19 21:58, 19.40
2016/05/19 22:18, 19.40
2016/05/19 22:38, 18.62
2016/05/19 22:58, 19.06
2016/05/19 23:18, 18.85
2016/05/19 23:38, 18.49
2016/05/19 23:58, 19.48
2016/05/20 00:18, 18.42
2016/05/20 00:38, 12.39
2016/05/20 00:58, 12.32
2016/05/20 01:18, 12.32
2016/05/20 01:38, 0.67
2016/05/20 01:58, 0.47
2016/05/20 02:18, 0.47
2016/05/20 02:38, 0.47
2016/05/20 02:58, 0.47
2016/05/20 03:18, 0.47
2016/05/20 03:38, 0.47
2016/05/20 03:58, 0.47
2016/05/20 04:18, 0.47
2016/05/20 04:38, 0.47
2016/05/20 04:58, 0.47
2016/05/20 05:18, 0.47
2016/05/20 05:38, 0.47
2016/05/20 05:58, 0.47
2016/05/20 06:18, 0.47
2016/05/20 06:38, 0.47
2016/05/20 06:58, 0.47
2016/05/20 07:18, 0.47
2016/05/20 07:38, 0.47
2016/05/20 07:58, 0.47
2016/05/20 08:18, 0.47
2016/05/20 08:38, 0.47
2016/05/20 08:58, 0.47
2016/05/20 09:18, 0.47
2016/05/20 09:38, 12.15
2016/05/20 09:58, 12.31
2016/05/20 10:18, 12.90
2016/05/20 10:38, 13.80
2016/05/20 10:58, 15.19
2016/05/20 11:18, 16.29
2016/05/20 11:38, 17.22
2016/05/20 11:58, 17.69
2016/05/20 12:18, 18.21
2016/05/20 12:38, 17.33
2016/05/20 12:58, 18.28
2016/05/20 13:18, 18.37
2016/05/20 13:38, 18.34
2016/05/20 13:58, 18.42
2016/05/20 14:18, 18.45
2016/05/20 14:38, 17.97
2016/05/20 14:58, 19.14
2016/05/20 15:18, 19.08
2016/05/20 15:38, 18.98
2016/05/20 15:58, 19.08
2016/05/20 16:18, 18.99
2016/05/20 16:38, 18.52
2016/05/20 16:58, 19.14
2016/05/20 17:18, 19.23
2016/05/20 17:38, 19.45
2016/05/20 17:58, 19.55
2016/05/20 18:18, 19.67
2016/05/20 18:38, 19.17
2016/05/20 18:58, 19.69
2016/05/20 19:18, 19.78
2016/05/20 19:38, 19.75
2016/05/20 19:58, 19.84
2016/05/20 20:18, 19.80
2016/05/20 20:38, 19.05
2016/05/20 20:58, 19.74
2016/05/20 21:18, 19.83
2016/05/20 21:38, 19.86
2016/05/20 21:58, 19.79
2016/05/20 22:18, 19.37
2016/05/20 22:38, 17.93
2016/05/20 22:58, 18.38
2016/05/20 23:18, 17.85
2016/05/20 23:38, 17.18
2016/05/20 23:58, 14.93
2016/05/21 00:18, 13.01
2016/05/21 00:38, 12.22
2016/05/21 00:58, 12.32
2016/05/21 01:18, 12.32
2016/05/21 01:38, 0.47
2016/05/21 01:58, 0.47
2016/05/21 02:18, 0.47
2016/05/21 02:38, 0.47
2016/05/21 02:58, 0.47
2016/05/21 03:18, 0.47
2016/05/21 03:38, 0.47
2016/05/21 03:58, 0.47
2016/05/21 04:18, 0.47
2016/05/21 04:38, 0.47
2016/05/21 04:58, 0.47
2016/05/21 05:18, 0.47
2016/05/21 05:38, 0.47
2016/05/21 05:58, 0.47
2016/05/21 06:18, 0.47
2016/05/21 06:38, 0.47
2016/05/21 06:58, 0.47
2016/05/21 07:18, 0.47
2016/05/21 07:38, 0.47
2016/05/21 07:58, 0.47
2016/05/21 08:18, 0.47
2016/05/21 08:38, 0.47
2016/05/21 08:58, 0.47
2016/05/21 09:18, 0.47
2016/05/21 09:38, 3.63
2016/05/21 09:58, 12.16
2016/05/21 10:18, 12.32
2016/05/21 10:38, 12.09
2016/05/21 10:58, 12.56
2016/05/21 11:18, 12.72
2016/05/21 11:38, 13.01
2016/05/21 11:58, 13.42
2016/05/21 12:18, 13.61
2016/05/21 12:38, 13.98
2016/05/21 12:58, 13.90
2016/05/21 13:18, 14.29
2016/05/21 13:38, 15.30
2016/05/21 13:58, 15.11
2016/05/21 14:18, 15.82
2016/05/21 14:38, 16.21
2016/05/21 14:58, 18.27
2016/05/21 15:18, 18.39
2016/05/21 15:38, 17.56
2016/05/21 15:58, 18.37
2016/05/21 16:18, 19.11
2016/05/21 16:38, 17.99
2016/05/21 16:58, 18.95
2016/05/21 17:18, 18.65
2016/05/21 17:38, 18.53
2016/05/21 17:58, 18.68
2016/05/21 18:18, 19.15
2016/05/21 18:38, 18.63
2016/05/21 18:58, 19.30
2016/05/21 19:18, 19.07
2016/05/21 19:38, 19.17
2016/05/21 19:58, 19.19
2016/05/21 20:18, 19.42
2016/05/21 20:38, 18.85
2016/05/21 20:58, 19.22
2016/05/21 21:18, 19.39
2016/05/21 21:38, 19.11
2016/05/21 21:58, 18.87
2016/05/21 22:18, 19.13
2016/05/21 22:38, 14.66
2016/05/21 22:58, 13.90
2016/05/21 23:18, 13.15
2016/05/21 23:38, 12.71
2016/05/21 23:58, 12.71
2016/05/22 00:18, 12.42
2016/05/22 00:38, 11.90
2016/05/22 00:58, 12.32
2016/05/22 01:18, 1.05
2016/05/22 01:38, 0.47
2016/05/22 01:58, 0.47
2016/05/22 02:18, 0.47
2016/05/22 02:38, 0.47
2016/05/22 02:58, 0.47
2016/05/22 03:18, 0.47
2016/05/22 03:38, 0.47
2016/05/22 03:58, 0.47
2016/05/22 04:18, 0.47
2016/05/22 04:38, 0.47
2016/05/22 04:58, 0.47
2016/05/22 05:18, 0.47
2016/05/22 05:38, 0.47
2016/05/22 05:58, 0.47
2016/05/22 06:18, 0.47
2016/05/22 06:38, 0.47
2016/05/22 06:58, 0.47
2016/05/22 07:18, 0.47
2016/05/22 07:38, 0.47
2016/05/22 07:58, 0.47
2016/05/22 08:18, 0.47
2016/05/22 08:38, 0.47
2016/05/22 08:58, 0.47
2016/05/22 09:18, 0.76
2016/05/22 09:38, 12.12
2016/05/22 09:58, 12.14
2016/05/22 10:18, 12.71
2016/05/22 10:38, 13.54
2016/05/22 10:58, 15.94
2016/05/22 11:18, 17.36
2016/05/22 11:38, 18.05
2016/05/22 11:58, 18.58
2016/05/22 12:18, 18.68
2016/05/22 12:38, 18.31
2016/05/22 12:58, 19.03
2016/05/22 13:18, 19.08
2016/05/22 13:38, 19.19
2016/05/22 13:58, 19.12
2016/05/22 14:18, 19.05
2016/05/22 14:38, 18.40
2016/05/22 14:58, 19.16
2016/05/22 15:18, 19.20
2016/05/22 15:38, 19.17
2016/05/22 15:58, 19.25
2016/05/22 16:18, 19.17
2016/05/22 16:38, 18.45
2016/05/22 16:58, 19.10
2016/05/22 17:18, 19.19
2016/05/22 17:38, 19.15
2016/05/22 17:58, 19.32
2016/05/22 18:18, 19.31
2016/05/22 18:38, 18.74
2016/05/22 18:58, 19.58
2016/05/22 19:18, 19.64
2016/05/22 19:38, 19.75
2016/05/22 19:58, 19.44
2016/05/22 20:18, 19.59
2016/05/22 20:38, 18.75
2016/05/22 20:58, 19.60
2016/05/22 21:18, 19.61
2016/05/22 21:38, 19.72
2016/05/22 21:58, 19.69
2016/05/22 22:18, 19.27
2016/05/22 22:38, 18.56
2016/05/22 22:58, 19.30
2016/05/22 23:18, 19.28
2016/05/22 23:38, 18.44
2016/05/22 23:58, 19.06
2016/05/23 00:18, 18.21
2016/05/23 00:38, 13.31
2016/05/23 00:58, 12.38
2016/05/23 01:18, 12.32
2016/05/23 01:38, 1.27
2016/05/23 01:58, 0.47
2016/05/23 02:18, 0.47
2016/05/23 02:38, 0.47
2016/05/23 02:58, 0.47
2016/05/23 03:18, 0.47
2016/05/23 03:38, 0.47
2016/05/23 03:58, 0.47
2016/05/23 04:18, 0.47
2016/05/23 04:38, 0.47
2016/05/23 04:58, 0.47
2016/05/23 05:18, 0.47
2016/05/23 05:38, 0.47
2016/05/23 05:58, 0.47
2016/05/23 06:18, 0.47
2016/05/23 06:38, 0.47
2016/05/23 06:58, 0.47
2016/05/23 07:18, 0.47
2016/05/23 07:38, 0.47
2016/05/23 07:58, 0.47
2016/05/23 08:18, 0.47
2016/05/23 08:38, 0.47
2016/05/23 08:58, 0.47
2016/05/23 09:18, 1.13
2016/05/23 09:38, 12.25
2016/05/23 09:58, 12.29
2016/05/23 10:18, 12.90
2016/05/23 10:38, 13.48
2016/05/23 10:58, 15.18
2016/05/23 11:18, 16.52
2016/05/23 11:38, 17.23
2016/05/23 11:58, 17.90
2016/05/23 12:18, 17.87
2016/05/23 12:38, 17.47
2016/05/23 12:58, 18.33
2016/05/23 13:18, 18.44
2016/05/23 13:38, 18.81
2016/05/23 13:58, 18.65
2016/05/23 14:18, 18.73
2016/05/23 14:38, 18.32
2016/05/23 14:58, 18.50
2016/05/23 15:18, 18.78
2016/05/23 15:38, 18.87
2016/05/23 15:58, 18.88
2016/05/23 16:18, 18.84
2016/05/23 16:38, 18.90
2016/05/23 16:58, 18.91
2016/05/23 17:18, 18.94
2016/05/23 17:38, 18.96
2016/05/23 17:58, 18.84
2016/05/23 18:38, 19.27
2016/05/23 18:58, 19.31
2016/05/23 19:18, 19.95
2016/05/23 19:38, 20.06
2016/05/23 19:58, 20.10
2016/05/23 20:18, 19.89
2016/05/23 20:38, 19.23
2016/05/23 20:58, 19.94
2016/05/23 21:18, 19.93
2016/05/23 21:38, 19.89
2016/05/23 21:58, 19.98
2016/05/23 22:18, 19.94
2016/05/23 22:38, 19.26
2016/05/23 22:58, 19.71
2016/05/23 23:18, 19.52
2016/05/23 23:38, 19.08
2016/05/23 23:58, 17.96
2016/05/24 00:18, 16.14
2016/05/24 00:38, 12.70
2016/05/24 00:58, 12.32
2016/05/24 01:18, 12.32
2016/05/24 01:38, 0.70
2016/05/24 01:58, 0.47
2016/05/24 02:18, 0.47
2016/05/24 02:38, 0.47
2016/05/24 02:58, 0.47
2016/05/24 03:18, 0.47
2016/05/24 03:38, 0.47
2016/05/24 03:58, 0.47
2016/05/24 04:18, 0.47
2016/05/24 04:38, 0.47
2016/05/24 04:58, 0.47
2016/05/24 05:18, 0.47
2016/05/24 05:38, 0.47
2016/05/24 05:58, 0.47
2016/05/24 06:18, 0.47
2016/05/24 06:38, 0.47
2016/05/24 06:58, 0.47
2016/05/24 07:18, 0.47
2016/05/24 07:38, 0.47
2016/05/24 07:58, 0.47
2016/05/24 08:18, 0.47
2016/05/24 08:38, 0.47
2016/05/24 08:58, 0.47
2016/05/24 09:18, 0.68
2016/05/24 09:38, 12.14
2016/05/24 09:58, 12.16
2016/05/24 10:18, 12.32
2016/05/24 10:38, 12.40
2016/05/24 10:58, 13.80
2016/05/24 11:18, 14.89
2016/05/24 11:38, 16.20
2016/05/24 11:58, 17.29
2016/05/24 12:18, 17.83
2016/05/24 12:38, 17.38
2016/05/24 12:58, 18.22
2016/05/24 13:18, 18.36
2016/05/24 13:38, 18.45
2016/05/24 13:58, 18.96
2016/05/24 14:18, 18.92
2016/05/24 14:38, 18.49
2016/05/24 14:58, 19.16
2016/05/24 15:18, 19.22
2016/05/24 15:38, 19.07
2016/05/24 15:58, 19.01
2016/05/24 16:18, 19.10
2016/05/24 16:38, 18.41
2016/05/24 16:58, 19.17
2016/05/24 17:18, 19.17
2016/05/24 17:38, 19.30
2016/05/24 17:58, 19.49
2016/05/24 18:18, 19.47
2016/05/24 18:38, 19.05
2016/05/24 18:58, 18.87
2016/05/24 19:18, 19.88
2016/05/24 19:38, 19.65
2016/05/24 19:58, 20.03
2016/05/24 20:18, 19.78
2016/05/24 20:38, 19.21
2016/05/24 20:58, 19.73
2016/05/24 21:18, 19.91
2016/05/24 21:38, 19.86
2016/05/24 21:58, 19.80
2016/05/24 22:18, 18.91
2016/05/24 22:38, 19.07
2016/05/24 22:58, 19.44
2016/05/24 23:18, 16.58
2016/05/24 23:38, 13.36
2016/05/24 23:58, 12.42
2016/05/25 00:18, 12.32
2016/05/25 00:38, 12.09
2016/05/25 00:58, 12.32
2016/05/25 01:18, 12.32
2016/05/25 01:38, 0.47
2016/05/25 01:58, 0.47
2016/05/25 02:18, 0.47
2016/05/25 02:38, 0.47
2016/05/25 02:58, 0.47
2016/05/25 03:18, 0.47
2016/05/25 03:38, 0.47
2016/05/25 03:58, 0.47
2016/05/25 04:18, 0.47
2016/05/25 04:38, 0.47
2016/05/25 04:58, 0.47
2016/05/25 05:18, 0.47
2016/05/25 05:38, 0.47
2016/05/25 05:58, 0.47
2016/05/25 06:18, 0.47
2016/05/25 06:38, 0.47
2016/05/25 06:58, 0.47
2016/05/25 07:18, 0.47
2016/05/25 07:38, 0.47
2016/05/25 07:58, 0.47
2016/05/25 08:18, 0.47
2016/05/25 08:38, 0.47
2016/05/25 08:58, 0.47
2016/05/25 09:18, 0.91
2016/05/25 09:38, 12.13
2016/05/25 09:58, 12.31
2016/05/25 10:18, 12.56
2016/05/25 10:38, 13.31
2016/05/25 10:58, 14.34
2016/05/25 11:18, 16.38
2016/05/25 11:38, 17.27
2016/05/25 11:58, 17.28
2016/05/25 12:18, 17.79
2016/05/25 12:38, 17.24
2016/05/25 12:58, 17.85
2016/05/25 13:18, 18.23
2016/05/25 13:38, 17.71
2016/05/25 13:58, 18.22
2016/05/25 14:18, 18.39
2016/05/25 14:38, 17.94
2016/05/25 14:58, 18.64
2016/05/25 15:18, 18.59
2016/05/25 15:38, 18.67
2016/05/25 15:58, 19.02
2016/05/25 16:18, 19.06
2016/05/25 16:38, 18.59
2016/05/25 16:58, 19.44
2016/05/25 17:18, 19.16
2016/05/25 17:38, 19.36
2016/05/25 17:58, 19.89
2016/05/25 18:18, 19.79
2016/05/25 18:38, 19.09
2016/05/25 18:58, 19.81
2016/05/25 19:18, 19.76
2016/05/25 19:38, 19.75
2016/05/25 19:58, 19.74
2016/05/25 20:18, 19.82
2016/05/25 20:38, 19.06
2016/05/25 20:58, 19.83
2016/05/25 21:18, 19.71
2016/05/25 21:38, 19.70
2016/05/25 21:58, 19.14
2016/05/25 22:18, 16.92
2016/05/25 22:38, 19.08
2016/05/25 22:58, 17.61
2016/05/25 23:18, 15.58
2016/05/25 23:38, 14.50
2016/05/25 23:58, 14.27
2016/05/26 00:18, 13.09
2016/05/26 00:38, 12.27
2016/05/26 00:58, 12.32
2016/05/26 01:18, 12.32
2016/05/26 01:38, 0.47
2016/05/26 01:58, 0.47
2016/05/26 02:18, 0.47
2016/05/26 02:38, 0.47
2016/05/26 02:58, 0.47
2016/05/26 03:18, 0.47
2016/05/26 03:38, 0.47
2016/05/26 03:58, 0.47
2016/05/26 04:18, 0.47
2016/05/26 04:38, 0.47
2016/05/26 04:58, 0.47
2016/05/26 05:18, 0.47
2016/05/26 05:38, 0.47
2016/05/26 05:58, 0.47
2016/05/26 06:18, 0.47
2016/05/26 06:38, 0.47
2016/05/26 06:58, 0.47
2016/05/26 07:18, 0.47
2016/05/26 07:38, 0.47
2016/05/26 07:58, 0.47
2016/05/26 08:18, 0.47
2016/05/26 08:38, 0.47
2016/05/26 08:58, 0.47
2016/05/26 09:18, 0.47
2016/05/26 09:38, 3.24
2016/05/26 09:58, 12.13
2016/05/26 10:18, 12.19
2016/05/26 10:38, 11.82
2016/05/26 10:58, 12.26
2016/05/26 11:18, 12.32
2016/05/26 11:38, 12.32
2016/05/26 11:58, 12.32
2016/05/26 12:18, 13.11
2016/05/26 12:38, 14.30
2016/05/26 12:58, 13.99
2016/05/26 13:18, 17.63
2016/05/26 13:38, 17.83
2016/05/26 13:58, 18.09
2016/05/26 14:18, 18.35
2016/05/26 14:38, 17.71
2016/05/26 14:58, 15.99
2016/05/26 15:18, 18.30
2016/05/26 15:38, 18.06
2016/05/26 15:58, 18.11
2016/05/26 16:18, 18.19
2016/05/26 16:38, 18.32
2016/05/26 16:58, 18.63
2016/05/26 17:18, 18.61
2016/05/26 17:38, 18.55
2016/05/26 17:58, 18.84
2016/05/26 18:18, 19.07
2016/05/26 18:38, 18.91
2016/05/26 18:58, 19.66
2016/05/26 19:18, 19.53
2016/05/26 19:38, 19.69
2016/05/26 19:58, 19.33
2016/05/26 20:18, 19.85
2016/05/26 20:38, 18.85
2016/05/26 20:58, 19.12
2016/05/26 21:18, 17.04
2016/05/26 21:38, 15.59
2016/05/26 21:58, 17.22
2016/05/26 22:18, 17.28
2016/05/26 22:38, 17.08
2016/05/26 22:58, 16.31
2016/05/26 23:18, 17.92
2016/05/26 23:38, 19.44
2016/05/26 23:58, 18.07
2016/05/27 00:18, 13.18
2016/05/27 00:38, 12.32
2016/05/27 00:58, 12.32
2016/05/27 01:18, 12.32
2016/05/27 01:38, 2.24
2016/05/27 01:58, 0.47
2016/05/27 02:18, 0.47
2016/05/27 02:38, 0.47
2016/05/27 02:58, 0.47
2016/05/27 03:18, 0.47
2016/05/27 03:38, 0.47
2016/05/27 03:58, 0.47
2016/05/27 04:18, 0.47
2016/05/27 04:38, 0.47
2016/05/27 04:58, 0.47
2016/05/27 05:18, 0.47
2016/05/27 05:38, 0.47
2016/05/27 05:58, 0.47
2016/05/27 06:18, 0.47
2016/05/27 06:38, 0.47
2016/05/27 06:58, 0.47
2016/05/27 07:18, 0.47
2016/05/27 07:38, 0.47
2016/05/27 07:58, 0.47
2016/05/27 08:18, 0.47
2016/05/27 08:38, 0.47
2016/05/27 08:58, 0.47
2016/05/27 09:18, 1.02
2016/05/27 09:38, 12.31
2016/05/27 09:58, 12.31
2016/05/27 10:18, 12.32
2016/05/27 10:38, 11.83
2016/05/27 10:58, 12.32
2016/05/27 11:18, 12.42
2016/05/27 11:38, 12.71
2016/05/27 11:58, 13.01
2016/05/27 12:18, 13.80
2016/05/27 12:38, 14.75
2016/05/27 12:58, 16.42
2016/05/27 13:18, 15.28
2016/05/27 13:38, 17.00
2016/05/27 13:58, 17.91
2016/05/27 14:18, 17.64
2016/05/27 14:38, 17.57
2016/05/27 14:58, 18.39
2016/05/27 15:18, 18.65
2016/05/27 15:38, 18.33
2016/05/27 15:58, 18.36
2016/05/27 16:18, 19.05
2016/05/27 16:38, 18.82
2016/05/27 16:58, 19.26
2016/05/27 17:18, 19.16
2016/05/27 17:38, 19.40
2016/05/27 17:58, 19.72
2016/05/27 18:18, 19.50
2016/05/27 18:38, 18.29
2016/05/27 18:58, 19.69
2016/05/27 19:18, 20.05
2016/05/27 19:38, 19.29
2016/05/27 19:58, 19.72
2016/05/27 20:18, 19.85
2016/05/27 20:38, 19.24
2016/05/27 20:58, 19.81
2016/05/27 21:18, 19.84
2016/05/27 21:38, 19.78
2016/05/27 21:58, 18.26
2016/05/27 22:18, 16.40
2016/05/27 22:38, 13.20
2016/05/27 22:58, 13.59
2016/05/27 23:18, 13.38
2016/05/27 23:38, 12.73
2016/05/27 23:58, 12.38
2016/05/28 00:18, 12.32
2016/05/28 00:38, 12.02
2016/05/28 00:58, 12.32
2016/05/28 01:18, 4.96
2016/05/28 01:38, 0.47
2016/05/28 01:58, 0.47
2016/05/28 02:18, 0.47
2016/05/28 02:38, 0.47
2016/05/28 02:58, 0.47
2016/05/28 03:18, 0.47
2016/05/28 03:38, 0.47
2016/05/28 03:58, 0.47
2016/05/28 04:18, 0.47
2016/05/28 04:38, 0.47
2016/05/28 04:58, 0.47
2016/05/28 05:18, 0.47
2016/05/28 05:38, 0.47
2016/05/28 05:58, 0.47
2016/05/28 06:18, 0.47
2016/05/28 06:38, 0.47
2016/05/28 06:58, 0.47
2016/05/28 07:18, 0.47
2016/05/28 07:38, 0.47
2016/05/28 07:58, 0.47
2016/05/28 08:18, 0.47
2016/05/28 08:38, 0.47
2016/05/28 08:58, 0.47
2016/05/28 09:18, 0.47
2016/05/28 09:38, 3.72
2016/05/28 09:58, 12.13
2016/05/28 10:18, 12.31
2016/05/28 10:38, 11.91
2016/05/28 10:58, 12.40
2016/05/28 11:18, 12.71
2016/05/28 11:38, 16.69
2016/05/28 11:58, 17.44
2016/05/28 12:18, 17.66
2016/05/28 12:38, 17.47
2016/05/28 12:58, 18.02
2016/05/28 13:18, 15.67
2016/05/28 13:38, 16.68
2016/05/28 13:58, 14.77
2016/05/28 14:18, 16.36
2016/05/28 14:38, 15.94
2016/05/28 14:58, 17.29
2016/05/28 15:18, 17.58
2016/05/28 15:38, 16.22
2016/05/28 15:58, 13.90
2016/05/28 16:18, 14.60
2016/05/28 16:38, 16.43
2016/05/28 16:58, 18.47
2016/05/28 17:18, 17.62
2016/05/28 17:38, 18.69
2016/05/28 17:58, 19.74
2016/05/28 18:18, 19.89
2016/05/28 18:38, 15.55
2016/05/28 18:58, 19.83
2016/05/28 19:18, 18.78
2016/05/28 19:38, 18.59
2016/05/28 19:58, 18.33
2016/05/28 20:18, 17.20
2016/05/28 20:38, 18.49
2016/05/28 20:58, 19.94
2016/05/28 21:18, 19.68
2016/05/28 21:38, 17.28
2016/05/28 21:58, 19.90
2016/05/28 22:18, 19.74
2016/05/28 22:38, 19.19
2016/05/28 22:58, 20.02
2016/05/28 23:18, 19.50
2016/05/28 23:38, 18.81
2016/05/28 23:58, 13.40
2016/05/29 00:18, 12.72
2016/05/29 00:38, 12.02
2016/05/29 00:58, 12.32
2016/05/29 01:18, 12.32
2016/05/29 01:38, 1.95
2016/05/29 01:58, 0.47
2016/05/29 02:18, 0.47
2016/05/29 02:38, 0.47
2016/05/29 02:58, 0.47
2016/05/29 03:18, 0.47
2016/05/29 03:38, 0.47
2016/05/29 03:58, 0.47
2016/05/29 04:18, 0.47
2016/05/29 04:38, 0.47
2016/05/29 04:58, 0.47
2016/05/29 05:18, 0.47
2016/05/29 05:38, 0.47
2016/05/29 05:58, 0.47
2016/05/29 06:18, 0.47
2016/05/29 06:38, 0.47
2016/05/29 06:58, 0.47
2016/05/29 07:18, 0.47
2016/05/29 07:38, 0.47
2016/05/29 07:58, 0.47
2016/05/29 08:18, 0.47
2016/05/29 08:38, 0.47
2016/05/29 08:58, 0.47
2016/05/29 09:18, 0.47
2016/05/29 09:38, 2.94
2016/05/29 09:58, 12.13
2016/05/29 10:18, 12.27
2016/05/29 10:38, 11.84
2016/05/29 10:58, 12.32
2016/05/29 11:18, 12.32
2016/05/29 11:38, 12.69
2016/05/29 11:58, 12.71
2016/05/29 12:18, 13.01
2016/05/29 12:38, 13.70
2016/05/29 12:58, 17.79
2016/05/29 13:18, 17.84
2016/05/29 13:38, 18.14
2016/05/29 13:58, 18.72
2016/05/29 14:18, 17.31
2016/05/29 14:38, 18.15
2016/05/29 14:58, 18.41
2016/05/29 15:18, 18.38
2016/05/29 15:38, 17.81
2016/05/29 15:58, 18.20
2016/05/29 16:18, 18.93
2016/05/29 16:38, 17.66
2016/05/29 16:58, 18.22
2016/05/29 17:18, 18.25
2016/05/29 17:38, 18.95
2016/05/29 17:58, 19.14
2016/05/29 18:18, 19.21
2016/05/29 18:38, 18.74
2016/05/29 18:58, 19.34
2016/05/29 19:18, 19.59
2016/05/29 19:38, 17.98
2016/05/29 19:58, 20.01
2016/05/29 20:18, 19.29
2016/05/29 20:38, 18.74
2016/05/29 20:58, 19.17
2016/05/29 21:18, 19.46
2016/05/29 21:38, 13.84
2016/05/29 21:58, 13.40
2016/05/29 22:18, 19.94
2016/05/29 22:38, 13.68
2016/05/29 22:58, 19.36
2016/05/29 23:18, 19.67
2016/05/29 23:38, 19.13
2016/05/29 23:58, 18.79
2016/05/30 00:18, 18.25
2016/05/30 00:38, 12.31
2016/05/30 00:58, 12.32
2016/05/30 01:18, 12.32
2016/05/30 01:38, 2.15
2016/05/30 01:58, 0.47
2016/05/30 02:18, 0.47
2016/05/30 02:38, 0.47
2016/05/30 02:58, 0.47
2016/05/30 03:18, 0.47
2016/05/30 03:38, 0.47
2016/05/30 03:58, 0.47
2016/05/30 04:18, 0.47
2016/05/30 04:38, 0.47
2016/05/30 04:58, 0.47
2016/05/30 05:18, 0.47
2016/05/30 05:38, 0.47
2016/05/30 05:58, 0.47
2016/05/30 06:18, 0.47
2016/05/30 06:38, 0.47
2016/05/30 06:58, 0.47
2016/05/30 07:18, 0.47
2016/05/30 07:38, 0.47
2016/05/30 07:58, 0.47
2016/05/30 08:18, 0.47
2016/05/30 08:38, 0.47
2016/05/30 08:58, 0.47
2016/05/30 09:18, 2.29
2016/05/30 09:38, 12.16
2016/05/30 09:58, 12.32
2016/05/30 10:18, 12.32
2016/05/30 10:38, 14.01
2016/05/30 10:58, 16.77
2016/05/30 11:18, 17.51
2016/05/30 11:38, 17.98
2016/05/30 11:58, 17.93
2016/05/30 12:18, 18.21
2016/05/30 12:38, 17.67
2016/05/30 12:58, 18.15
2016/05/30 13:18, 18.29
2016/05/30 13:38, 18.19
2016/05/30 13:58, 18.70
2016/05/30 14:18, 18.86
2016/05/30 14:38, 18.05
2016/05/30 14:58, 18.67
2016/05/30 15:18, 18.80
2016/05/30 15:38, 18.69
2016/05/30 15:58, 18.80
2016/05/30 16:18, 18.69
2016/05/30 16:38, 15.39
2016/05/30 16:58, 16.54
2016/05/30 17:18, 19.27
2016/05/30 17:38, 19.39
2016/05/30 17:58, 19.79
2016/05/30 18:18, 17.61
2016/05/30 18:38, 18.34
2016/05/30 18:58, 19.14
2016/05/30 19:18, 19.31
2016/05/30 19:38, 17.20
2016/05/30 19:58, 19.46
2016/05/30 20:18, 19.30
2016/05/30 20:38, 18.87
2016/05/30 20:58, 19.40
2016/05/30 21:18, 16.78
2016/05/30 21:38, 19.34
2016/05/30 21:58, 19.35
2016/05/30 22:18, 19.13
2016/05/30 22:38, 18.87
2016/05/30 22:58, 19.13
2016/05/30 23:18, 19.17
2016/05/30 23:38, 19.20
2016/05/30 23:58, 18.99
2016/05/31 00:18, 18.50
2016/05/31 00:38, 15.61
2016/05/31 00:58, 13.31
2016/05/31 01:18, 12.32
2016/05/31 01:38, 4.03
2016/05/31 01:58, 0.47
2016/05/31 02:18, 0.47
2016/05/31 02:38, 0.47
2016/05/31 02:58, 0.47
2016/05/31 03:18, 0.47
2016/05/31 03:38, 0.47
2016/05/31 03:58, 0.47
2016/05/31 04:18, 0.47
2016/05/31 04:38, 0.47
2016/05/31 04:58, 0.47
2016/05/31 05:18, 0.47
2016/05/31 05:38, 0.47
2016/05/31 05:58, 0.47
2016/05/31 06:18, 0.47
2016/05/31 06:38, 0.47
2016/05/31 06:58, 0.47
2016/05/31 07:18, 0.47
2016/05/31 07:38, 0.47
2016/05/31 07:58, 0.47
2016/05/31 08:18, 0.47
2016/05/31 08:38, 0.47
2016/05/31 08:58, 0.47
2016/05/31 09:18, 3.24
2016/05/31 09:38, 12.28
2016/05/31 09:58, 12.42
2016/05/31 10:18, 13.46
2016/05/31 10:38, 14.26
2016/05/31 10:58, 17.14
2016/05/31 11:18, 16.10
2016/05/31 11:38, 18.32
2016/05/31 11:58, 18.22
2016/05/31 12:18, 18.57
2016/05/31 12:38, 18.11
2016/05/31 12:58, 18.84
2016/05/31 13:18, 19.03
2016/05/31 13:38, 19.17
2016/05/31 13:58, 19.45
2016/05/31 14:18, 19.47
2016/05/31 14:38, 18.91
2016/05/31 14:58, 19.52
2016/05/31 15:18, 19.44
2016/05/31 15:38, 19.42
2016/05/31 15:58, 19.27
2016/05/31 16:18, 19.20
2016/05/31 16:38, 18.28
2016/05/31 16:58, 18.96
2016/05/31 17:18, 18.94
2016/05/31 17:38, 18.85
2016/05/31 17:58, 19.01
2016/05/31 18:18, 19.11
2016/05/31 18:38, 18.47
2016/05/31 18:58, 19.32
2016/05/31 19:18, 19.49
2016/05/31 19:38, 19.55
2016/05/31 19:58, 19.41
2016/05/31 20:18, 19.44
2016/05/31 20:38, 18.62
2016/05/31 20:58, 19.14
2016/05/31 21:18, 18.65
2016/05/31 21:38, 18.68
2016/05/31 21:58, 18.72
2016/05/31 22:18, 18.67
2016/05/31 22:38, 18.90
2016/05/31 22:58, 19.15
2016/05/31 23:18, 18.41
2016/05/31 23:38, 18.51
2016/05/31 23:58, 18.31
2016/06/01 00:18, 17.77
2016/06/01 00:38, 14.54
2016/06/01 00:58, 14.53
2016/06/01 01:18, 11.93
2016/06/01 01:38, 3.63
2016/06/01 01:58, 0.47
2016/06/01 02:18, 0.47
2016/06/01 02:38, 0.47
2016/06/01 02:58, 0.47
2016/06/01 03:18, 0.47
2016/06/01 03:38, 0.47
2016/06/01 03:58, 0.47
2016/06/01 04:18, 0.47
2016/06/01 04:38, 0.47
2016/06/01 04:58, 0.47
2016/06/01 05:18, 0.47
2016/06/01 05:38, 0.47
2016/06/01 05:58, 0.47
2016/06/01 06:18, 0.47
2016/06/01 06:38, 0.47
2016/06/01 06:58, 0.47
2016/06/01 07:18, 0.47
2016/06/01 07:38, 0.47
2016/06/01 07:58, 0.47
2016/06/01 08:18, 0.47
2016/06/01 08:38, 0.47
2016/06/01 08:58, 0.47
2016/06/01 09:18, 3.88
2016/06/01 09:38, 11.80
2016/06/01 09:58, 11.96
2016/06/01 10:18, 12.41
2016/06/01 10:38, 13.66
2016/06/01 10:58, 14.30
2016/06/01 11:18, 17.76
2016/06/01 11:38, 13.79
2016/06/01 11:58, 13.80
2016/06/01 12:18, 13.58
2016/06/01 12:38, 13.11
2016/06/01 12:58, 13.80
2016/06/01 13:18, 15.19
2016/06/01 13:38, 14.27
2016/06/01 13:58, 14.20
2016/06/01 14:18, 14.29
2016/06/01 14:38, 13.89
2016/06/01 14:58, 14.98
2016/06/01 15:18, 15.57
2016/06/01 15:38, 15.64
2016/06/01 15:58, 16.40
2016/06/01 16:18, 16.97
2016/06/01 16:38, 16.05
2016/06/01 16:58, 18.15
2016/06/01 17:18, 18.63